Retour au catalogue

STARLINK-35898

ActifCommunicationsVLEO
NORAD 66826·PAYLOAD·🇺🇸 United States

Lancé Dec 2, 2025 depuis Vandenberg Space Force Base

Loading…

Prochains Passages (prochaines 24 heures)

TLE

FraisSource: CelesTrak SupGP

Époque: Sep 15, 2026, 04:06 UTC

1 66826C 25280F   26258.17131944  .00004312  00000+0  36146-3 0  2588
2 66826  70.0014 216.5409 0003093 272.3365  45.1542 14.98316078    11

Suivez STARLINK-35898 en temps réel avec AllMySat

Download on the App Store